User: anonymous   Login
Location: Unspecified
(35.6961°N, 0.0000°E)
Time: 12:30:58
(UTC+00:00)
Language:

SR - Orbit

View from above orbital plane
View from above orbital plane
View from above satellite
View from above satellite

Ground track
Ground track

The orbit data is extracted from the following two-line orbital elements,

1    46U 60007B   19295.62071398 +.00000019 +00000-0 +26850-4 0  9990
2    46 066.6906 331.8535 0216048 307.9053 050.2691 14.49251212104505
Epoch (UTC): 22 October 2019 14:53:49
Eccentricity: 0.0216048
inclination: 66.6906°
perigee height: 574 km
apogee height: 881 km
right ascension of ascending node: 331.8535°
argument of perigee: 307.9053°
revolutions per day: 14.49251212
mean anomaly at epoch: 50.2691°
orbit number at epoch: 10450

The dashed part of the orbit path shows where the satellite is in the earth's shadow,  

DLR